Theta_e
356 358 357 357 357 357 358 358 358 358 359 359 359 359 358 357 355 355 357 359 360 361 361 362 361 360 362 362 359 361 360 359 360 359 358 360 359 356 357 356 354 353
356 357 358 358 356 355 355 356 357 357 357 357 358 357 356 355 355 355 355 358 360 361 362 363 362 361 363 362 358 359 360 360 362 360 359 361 360 359 358 356 354 352
357 358 358 358 356 355 354 353 354 355 356 356 355 354 354 355 356 355 355 357 358 359 360 362 362 362 363 362 361 361 360 362 362 360 360 362 361 361 360 357 354 352
357 358 358 357 356 354 352 352 353 353 354 356 355 352 353 353 354 356 356 357 356 357 358 359 360 361 361 362 364 364 362 363 363 360 362 363 362 361 361 359 355 352
358 357 356 357 354 353 352 351 352 354 353 354 354 352 350 351 353 355 356 357 357 356 356 357 357 358 359 360 362 363 362 364 363 361 363 365 364 361 360 360 357 354
359 356 356 355 353 353 353 351 350 352 352 352 352 352 350 350 351 354 355 356 357 356 356 356 356 356 357 358 360 361 361 362 362 361 362 364 365 362 359 359 358 357
360 358 355 355 355 353 352 351 351 351 352 350 350 352 351 350 350 350 353 355 355 354 353 354 355 356 356 357 358 359 360 359 359 359 360 362 362 361 360 358 358 359
360 359 356 354 354 352 352 353 351 350 351 350 349 350 349 349 349 350 351 353 354 353 351 351 353 355 354 355 356 358 359 359 357 357 359 361 361 360 359 358 359 360
361 361 358 355 354 352 352 351 351 351 350 349 349 349 349 349 350 350 350 351 352 351 349 348 350 352 352 354 354 356 358 358 356 355 356 359 360 361 359 359 359 360
359 360 359 357 353 352 351 350 350 351 352 351 349 349 348 349 349 350 351 350 351 350 348 347 349 349 350 352 353 354 356 357 356 353 353 356 357 359 359 359 358 358
356 357 358 358 355 351 350 349 348 349 351 352 350 348 347 348 349 350 352 351 350 350 349 348 348 349 350 351 352 353 354 355 355 354 352 353 355 355 356 356 356 356
355 354 354 355 356 352 351 349 348 347 349 352 351 349 346 347 348 349 351 352 351 349 350 349 349 349 351 352 353 351 352 353 354 354 353 353 353 355 354 354 354 354
356 355 354 352 352 352 349 349 348 346 346 349 350 349 346 346 348 348 349 351 351 350 350 351 350 350 352 352 353 352 349 350 352 353 353 352 353 353 353 353 353 353
356 357 355 352 353 353 350 346 347 346 345 345 348 348 347 345 345 347 349 349 351 351 350 351 351 351 351 352 354 352 350 349 350 351 352 351 351 351 351 351 351 350
355 357 356 354 353 353 354 350 347 346 346 344 345 346 346 345 343 344 346 348 350 350 351 352 352 352 352 352 353 353 350 349 349 349 349 349 349 350 350 349 350 349
353 354 355 356 353 352 356 356 353 350 347 345 345 346 345 346 344 342 344 346 348 349 350 352 353 352 352 352 352 351 350 349 347 347 348 348 348 348 348 348 348 347
353 353 354 355 355 355 357 358 357 355 353 350 347 346 346 346 345 342 342 344 346 348 349 351 352 351 351 352 351 350 349 348 346 344 345 345 346 347 348 347 347 346
355 354 354 354 355 358 359 359 357 356 357 356 354 349 346 347 347 345 345 343 342 344 347 349 351 351 350 349 349 349 348 348 346 344 343 342 343 345 345 346 346 345
356 356 356 355 355 356 356 354 354 356 356 354 353 355 353 350 348 347 347 347 344 343 344 347 348 350 349 348 347 348 348 347 347 347 345 343 342 342 343 343 345 345
353 355 356 355 354 354 353 352 354 356 355 354 353 353 353 353 353 351 350 350 349 347 346 346 346 347 350 348 348 346 346 347 346 347 346 345 343 343 342 343 344 345
348 351 352 353 353 354 354 353 353 354 355 355 354 354 354 353 353 355 355 352 352 352 351 350 349 347 347 349 349 347 346 346 346 346 346 346 344 343 344 344 345 347
346 348 349 351 352 352 351 352 353 354 354 355 354 354 353 353 353 354 355 357 356 355 355 355 354 351 349 349 349 349 348 345 346 347 347 347 346 345 345 345 344 346
346 346 347 348 350 350 350 351 352 353 354 354 354 354 354 354 353 353 354 357 358 357 357 358 358 356 354 352 350 350 350 348 347 347 347 349 348 348 349 350 349 348
343 344 346 348 348 350 350 349 350 353 354 355 354 354 354 355 355 354 354 355 356 356 357 357 358 358 358 356 355 352 351 350 349 348 349 350 351 352 353 352 353 353
342 344 345 347 348 349 350 349 349 350 352 354 355 354 354 355 356 356 357 356 356 357 357 356 357 358 358 358 358 356 354 352 350 350 351 352 354 354 355 354 354 354
341 343 345 345 347 348 349 349 349 349 350 353 355 356 356 356 356 357 358 358 358 358 357 356 357 358 357 357 358 358 357 355 352 352 352 354 355 355 356 356 356 356
Wind_Speed
20 20 18 17 16 15 14 15 14 13 13 13 13 13 13 13 13 14 14 13 12 11 10 10 9 8 8 8 8 8 7 7 7 7 7 6 6 6 5 5 5 4
22 21 20 18 17 16 16 15 15 14 14 13 12 13 13 12 12 13 13 13 12 11 11 10 10 9 9 8 8 8 7 7 6 7 7 7 6 6 5 6 6 5
23 22 21 20 19 18 17 16 16 15 15 14 13 13 13 13 13 13 13 13 12 12 12 11 10 10 10 9 9 9 8 8 8 7 7 7 7 6 6 6 6 7
24 22 22 20 19 20 19 18 17 17 16 15 15 14 14 14 14 14 14 14 13 13 13 12 11 11 11 10 10 10 9 8 9 8 7 8 7 6 6 6 6 7
25 24 22 21 20 20 21 19 19 18 17 17 17 16 15 15 16 16 15 15 14 14 13 13 13 12 12 12 11 10 9 9 9 9 9 8 8 7 6 7 7 6
25 25 24 23 21 21 22 21 20 19 19 19 19 18 17 17 17 16 16 16 15 15 14 14 14 13 12 13 13 11 10 9 10 10 10 9 8 8 7 7 8 7
24 25 25 24 22 22 22 22 22 21 20 20 20 21 20 19 18 18 18 17 16 16 15 15 15 14 13 13 13 13 12 11 10 10 11 10 10 9 9 8 8 9
24 24 25 24 23 23 23 22 23 23 22 21 21 21 22 22 21 20 19 19 18 17 16 16 16 15 14 14 14 14 13 12 12 12 11 11 11 11 10 9 9 10
23 23 24 24 23 23 24 23 23 23 23 23 22 21 22 23 23 22 21 20 19 19 18 17 17 17 16 15 15 15 15 14 13 14 14 13 12 12 12 11 11 11
24 24 23 24 24 24 24 24 23 23 24 24 23 22 22 23 23 23 23 22 21 20 20 20 19 18 18 17 16 16 16 16 15 14 15 15 14 14 13 13 13 13
22 23 24 24 24 23 24 25 24 23 24 25 24 23 23 24 24 23 24 25 25 22 21 22 21 20 20 19 18 18 17 16 16 15 15 15 15 15 15 14 15 15
21 22 23 24 25 24 23 24 25 24 23 24 25 24 23 24 25 25 24 25 27 26 23 23 23 22 22 21 20 19 19 18 17 17 17 16 16 16 16 16 16 16
20 20 19 19 20 23 24 23 24 25 25 24 25 26 24 23 24 26 26 26 27 27 26 25 25 25 24 23 23 21 20 20 19 18 19 18 18 18 17 17 17 17
15 16 19 20 19 20 24 25 24 24 25 25 25 26 25 24 24 25 26 26 25 27 27 26 26 27 26 25 25 24 21 21 21 21 20 20 20 20 19 19 19 19
12 15 21 24 23 23 22 24 26 25 25 25 25 25 26 25 24 24 25 26 26 26 27 26 26 27 28 27 27 27 25 23 22 22 22 21 21 21 20 20 20 20
11 14 16 22 25 24 22 22 24 25 24 25 25 25 25 26 26 25 24 25 27 27 27 26 25 26 28 29 29 29 28 26 24 24 24 23 23 22 22 22 21 21
9 13 15 16 19 21 21 21 22 23 24 24 24 25 24 24 26 26 25 23 24 27 27 26 25 25 27 30 31 31 30 28 27 26 25 25 25 24 24 23 22 22
8 11 13 13 14 16 17 18 19 21 22 21 21 22 24 23 23 25 26 25 24 24 25 26 26 26 27 29 31 32 32 30 28 27 26 26 27 27 27 26 25 24
7 9 11 11 13 15 15 15 17 17 16 18 25 24 20 21 23 24 24 25 26 25 24 25 26 28 28 28 30 32 33 33 30 27 26 26 26 27 28 27 27 26
11 9 10 12 13 14 15 15 18 18 14 15 21 26 24 21 19 22 23 25 26 27 26 25 24 26 29 31 31 32 33 35 34 30 27 26 26 26 26 27 27 28
17 14 14 14 14 13 14 13 16 18 17 19 21 20 20 21 20 20 23 25 27 28 28 28 26 26 27 30 33 34 33 34 36 35 31 28 27 26 25 26 26 26
16 16 16 16 15 12 13 12 10 15 19 20 21 20 21 22 22 22 23 23 25 27 27 28 29 29 28 28 30 32 34 35 36 37 35 32 29 28 27 27 27 26
14 15 15 15 15 11 9 9 8 10 15 18 20 20 19 21 24 25 24 22 23 25 26 27 27 27 29 30 29 28 30 35 37 37 36 34 31 30 28 27 27 28
13 14 13 13 13 9 8 9 10 9 10 14 18 19 19 21 24 24 24 23 23 23 24 26 27 26 25 26 29 28 28 31 36 36 34 33 31 30 29 28 27 27
13 12 11 10 11 9 8 9 11 10 9 11 14 16 16 18 20 21 20 22 22 21 22 24 25 26 25 23 24 27 27 28 32 34 32 31 30 28 28 28 29 29
13 12 12 12 12 12 11 11 12 11 10 11 12 13 12 12 15 17 18 18 19 19 20 20 19 20 24 25 25 26 26 27 29 31 31 30 29 27 26 25 25 27
Wind_Direction
189 190 191 191 192 192 191 192 192 192 190 187 186 187 187 184 184 186 182 180 181 182 181 182 187 183 171 176 181 176 175 178 184 185 187 194 202 211 218 220 233 252
192 192 192 192 194 195 194 194 196 196 196 193 190 189 189 186 184 183 181 181 183 185 186 183 185 185 180 185 190 188 189 187 189 193 190 194 207 212 216 222 222 231
192 192 193 195 195 195 196 197 199 199 197 197 196 192 191 190 188 185 183 185 185 187 189 187 187 188 187 191 193 192 197 197 197 201 198 198 208 216 218 223 222 221
194 194 195 197 197 196 197 197 198 199 199 199 197 195 196 194 191 190 188 189 190 191 191 191 192 193 192 196 197 196 202 207 205 206 209 208 209 217 221 220 225 224
196 196 196 199 201 198 197 198 198 198 200 201 197 197 201 196 191 191 193 194 194 194 195 194 196 199 198 199 202 202 205 211 212 212 215 217 214 217 221 218 222 227
198 198 197 200 203 200 199 201 201 200 200 201 198 199 202 198 193 194 196 197 197 197 197 196 197 201 202 202 204 207 207 213 218 216 218 221 220 220 221 216 217 224
200 201 199 200 203 203 204 203 203 202 202 202 200 199 201 200 199 200 201 200 200 201 201 198 197 199 203 205 206 209 210 215 221 220 221 223 224 227 228 222 217 219
200 203 202 202 203 204 206 206 206 205 205 205 203 202 202 201 202 204 204 203 202 205 205 203 201 199 202 207 208 211 212 214 219 220 222 225 226 229 232 233 227 220
202 202 203 204 205 205 206 207 207 207 207 208 206 205 204 203 203 204 205 205 203 206 207 206 206 203 203 208 210 211 213 214 219 221 222 224 228 231 231 233 234 228
210 206 205 205 206 208 208 208 209 207 207 209 209 207 206 206 206 204 205 207 206 207 207 206 208 207 206 210 212 214 214 216 221 222 222 223 226 230 231 231 233 232
223 216 210 209 209 210 210 210 211 209 208 208 210 211 207 206 206 205 206 207 207 209 209 207 209 209 208 210 212 214 215 218 222 224 224 225 227 229 232 231 232 234
240 237 223 214 212 214 214 214 213 213 211 208 210 214 212 207 206 206 207 209 209 210 211 211 211 211 211 211 212 214 216 217 222 226 227 228 230 231 232 234 234 235
243 255 252 242 230 222 220 219 217 216 216 212 209 212 215 213 207 205 207 209 209 210 212 213 213 212 213 213 213 215 216 217 219 223 227 229 231 232 233 234 235 235
238 248 254 265 272 257 236 226 223 221 219 217 211 209 214 218 214 208 206 208 210 210 212 215 215 215 215 216 217 217 218 219 220 222 226 228 230 233 234 235 236 237
251 243 234 239 258 272 261 241 232 229 224 220 215 210 212 218 221 218 209 205 209 212 212 214 217 217 217 217 218 219 219 221 222 223 226 230 232 233 235 237 239 240
265 265 249 238 239 252 266 259 246 241 235 227 220 215 214 214 219 225 221 210 206 208 211 214 217 220 220 219 219 219 220 221 223 225 227 230 234 236 237 239 240 242
280 273 266 258 246 247 261 267 259 253 251 244 230 220 218 216 214 219 226 223 213 208 209 214 219 223 223 222 222 222 222 221 223 227 229 231 234 237 240 241 243 245
314 301 288 279 269 266 275 283 274 261 262 272 266 240 224 219 217 216 221 227 228 220 213 213 220 225 227 227 225 224 225 224 224 226 230 233 235 236 240 242 244 246
346 334 326 314 298 292 300 306 297 282 275 291 302 292 263 237 227 222 221 224 231 234 227 219 220 223 227 229 229 228 227 226 226 227 230 234 237 238 239 241 243 245
11 359 351 346 333 320 315 302 293 294 280 271 291 304 301 285 260 240 232 227 229 236 239 235 230 226 225 226 228 230 230 228 227 228 230 234 237 240 241 241 242 244
12 7 2 358 351 348 345 321 288 279 269 256 260 268 272 276 273 260 250 238 231 233 239 241 240 236 233 229 226 227 230 230 229 228 230 234 237 241 244 244 244 245
11 9 8 4 356 351 355 348 304 271 263 259 256 251 247 249 253 257 259 253 241 236 237 240 241 240 241 239 234 229 228 229 229 227 228 232 236 240 245 249 251 251
9 7 9 7 1 352 339 338 321 283 268 262 258 257 257 257 255 256 261 266 262 252 245 244 245 244 244 245 243 238 232 229 228 227 228 231 235 239 242 246 250 252
2 7 8 1 356 349 326 319 316 297 280 272 265 259 259 261 259 256 257 261 266 264 257 254 253 252 251 250 248 245 239 234 229 226 227 231 235 238 241 244 248 250
351 0 1 349 339 335 328 322 315 304 293 286 277 270 269 268 263 259 257 255 257 258 257 257 257 256 255 256 255 251 245 239 232 227 227 231 234 238 241 244 247 249
345 349 347 340 333 328 326 326 324 320 313 305 292 280 277 274 265 263 265 265 265 264 261 262 265 260 252 250 252 251 247 240 232 227 227 231 235 238 241 244 248 250